Location: Unspecified
(0.0000°N, 0.0000°E)
Time: 10:38:40
(UTC+00:00)

A-11 Canister half - Pass Details

Date: 01 August 2021
Orbit: 1515 x 1685 km, 47.2° (Epoch: 27 September)

Event Time Altitude Azimuth Distance (km) Brightness Sun altitude
Rises 01:40:12 0° 322° (NW) 4,920 - -60.8°
Reaches altitude 10° 01:43:22 10° 323° (NW) 3,924 - -60.1°
Maximum altitude 01:53:29 83° 50° (NE) 1,655 - -58.1°
Drops below altitude 10° 02:03:17 10° 138° (SE) 3,818 - -56.1°
Sets 02:06:20 0° 139° (SE) 4,782 - -55.5°
